[[{"header":{"parameterUnit":"m.s-1","parameterCategory":2,"la1":30.2991,"la2":30.254,"lo1":-89.0895,"lo2":-89.0444,"dy":0.0017,"dx":0.0017,"nx":28,"ny":28,"refTime":"2024-11-23T09:00:00:Z","depth":"0","parameterNumber":2,"parameterNumberName":"U-component_of_CURRENTS"},"data":[0,0,0,0,0,0,0,0,0,0,0,0,0,0,0,0,0,0,0,0,0,0,0,0,0,0,0,0,0,0,0,0,0,0,0,0,0,0,0,0,0,0,0,0,0,0,0,0,0,0,0,0,0,0,0,0,0,0,0.1268,0.1269,0,0.1321,0.1321,0.1321,0.1296,0.1295,0.1294,0.1293,0.1202,0.12,0.1199,0,0,0,0,0,0,0,0,0,0,0,0,0,0.1107,0.111,0.1268,0.1269,0.127,0.1321,0.1321,0.1322,0.1296,0.1295,0.1294,0.1292,0.1202,0.1201,0.1199,0,0,0,0,0,0,0,0,0,0,0,0,0,0.1165,0.111,0.1267,0.1267,0.1267,0.1321,0.1321,0.1322,0.1296,0.1295,0.1293,0.1292,0.1203,0.1201,0.1198,0.1212,0,0,0.1191,0.119,0,0,0,0,0,0,0,0,0.1162,0.1171,0.1266,0.1267,0.1268,0.1304,0.1231,0.128,0.1296,0.128,0.1293,0.1291,0.1227,0.1223,0.1231,0.1208,0.1204,0.1191,0.119,0.1189,0.1188,0,0,0,0,0,0,0,0.1158,0.1168,0.1284,0.1267,0.1269,0.1251,0.1258,0.124,0.1254,0.1281,0.1281,0.1295,0.1226,0.1233,0.1228,0.1203,0.1191,0.1189,0.1188,0.1187,0.1302,0.1306,0,0,0,0,0,0,0.1166,0.1165,0.1282,0.1286,0.1216,0.1256,0.1263,0.129,0.1258,0.1254,0.1296,0.1294,0.1238,0.1231,0.1225,0.1294,0.1189,0.1187,0.1185,0.1298,0.1303,0.1308,0,0,0,0,0,0,0.1162,0.1176,0.128,0.1229,0.1242,0.1261,0.1291,0.1292,0.1306,0.1271,0.1263,0.131,0.1237,0.1228,0.1248,0.1287,0.1186,0.1183,0.1292,0.1299,0.1305,0.1396,0,0,0,0,0,0,0.1157,0.1175,0.1188,0.1231,0.1245,0.1312,0.1293,0.1294,0.1319,0.1316,0.1281,0.1271,0.1235,0.1253,0.1246,0.1282,0.1182,0.1287,0.1295,0.1303,0.1387,0.1405,0.142,0,0,0,0,0,0.1152,0.1174,0.1189,0.1203,0.1267,0.1314,0.1319,0.1324,0.1321,0.133,0.1335,0.1272,0.1302,0.1254,0.1245,0.1282,0.1283,0.1293,0.1303,0.138,0.1402,0.142,0,0,0,0,0,0,0.1104,0.1176,0.1192,0.1234,0.1274,0.1311,0.1319,0.1337,0.1351,0.1341,0.1313,0.1305,0.1341,0.1317,0.1266,0.1352,0.1288,0.1297,0.1351,0.137,0.1386,0.1341,0.118,0,0,0,0,0,0.1106,0.1145,0.1206,0.1238,0.1259,0.1296,0.1314,0.1324,0.1348,0.1352,0.1342,0.135,0.138,0.1376,0.1382,0.1414,0.1429,0.1445,0.1461,0.1474,0.1441,0.1561,0.1584,0.1341,0.1341,0.134,0,0,0.11,0.1142,0.1165,0.1231,0.1258,0.1299,0.1302,0.1333,0.1366,0.1338,0.1371,0.1393,0.1405,0.1452,0.1467,0.143,0.1562,0.1487,0.1497,0.1456,0.1574,0.1597,0.1617,0.1348,0.1346,0.1345,0,0,0.1124,0.1143,0.1196,0.1224,0.1276,0.1294,0.1311,0.1361,0.1377,0.1425,0.1438,0.1492,0.1507,0.1541,0.1559,0.1673,0.1647,0.1688,0.1718,0.1837,0.1857,0.1874,0.1952,0.1975,0.1692,0.1692,0.1692,0,0.1124,0.1199,0.1214,0.1263,0.1292,0.1299,0.1356,0.1371,0.1422,0.1454,0.1438,0.155,0.155,0.1646,0.1686,0.1701,0.1754,0.1633,0.1854,0.1871,0.1887,0.1963,0.1987,0.1698,0.1697,0.1697,0.1696,0,0.1207,0.1246,0.127,0.1339,0.1355,0.1401,0.1426,0.1448,0.147,0.1502,0.1595,0.1632,0.1696,0.1734,0.1728,0.1861,0.1859,0.1862,0.179,0.1916,0.199,0.2013,0.1706,0.1704,0.1702,0.1701,0,0,0.1305,0.1334,0.1346,0.1376,0.1405,0.1434,0.1465,0.153,0.1571,0.1612,0.1701,0.1772,0.1791,0.1816,0.1852,0.194,0.2109,0.1941,0.1945,0.199,0.236,0.2283,0.23,0.2163,0.2167,0.217,0.2374,0,0.1396,0.1475,0.1469,0.1532,0.158,0.1561,0.1594,0.1623,0.165,0.1717,0.1774,0.1853,0.1825,0.1881,0.1965,0.2069,0.2171,0.2051,0.2251,0.2256,0.215,0.2325,0.2224,0.239,0.2397,0.2401,0.2404,0,0.153,0.1556,0.1629,0.1642,0.1663,0.1678,0.1724,0.1753,0.1805,0.1832,0.1895,0.1929,0.2043,0.2019,0.2227,0.2156,0.2255,0.233,0.2341,0.2234,0.2222,0.2264,0.2432,0.2344,0.2439,0.2437,0.2434,0,0.1632,0.1682,0.1734,0.1742,0.175,0.1771,0.1772,0.1798,0.1835,0.1905,0.1952,0.2059,0.2138,0.2269,0.236,0.2331,0.2588,0.2582,0.2609,0.2604,0.2531,0.2511,0.2601,0.2761,0.276,0.276,0.2759,0,0.1757,0.1802,0.1776,0.1802,0.1853,0.1831,0.189,0.1893,0.1936,0.198,0.2014,0.2082,0.221,0.2339,0.2424,0.2568,0.2651,0.263,0.2666,0.2563,0.2545,0.2469,0.243,0.2767,0.2766,0.2764,0.2763,0,0.1857,0.1855,0.1904,0.1899,0.19,0.1924,0.1929,0.1955,0.1991,0.2054,0.2083,0.2159,0.229,0.2404,0.2622,0.2654,0.2735,0.2837,0.2671,0.2682,0.2578,0.2549,0.2575,0.2544,0.2913,0.2912,0.2912,0,0.1908,0.1947,0.1952,0.1949,0.1939,0.1964,0.1965,0.1984,0.1995,0.2085,0.2111,0.2248,0.2295,0.2543,0.2652,0.281,0.2739,0.2803,0.2717,0.257,0.2568,0.2458,0.2422,0.2687,0.2685,0.2683,0.2682,0,0.197,0.197,0.1971,0.198,0.1975,0.1991,0.1986,0.2013,0.203,0.2073,0.2115,0.2168,0.2359,0.243,0.2609,0.27,0.2647,0.2767,0.2699,0.2457,0.2267,0.2253,0.2524,0.2666,0.2667,0.2668,0.2669,0.267,0.197,0.1979,0.1963,0.1967,0.1971,0.1967,0.1955,0.1955,0.1973,0.1975,0.2061,0.2088,0.2215,0.2426,0.2511,0.2549,0.2565,0.25,0.2501,0.2421,0.2299,0.2492,0.2607,0.2608,0.2609,0.261,0.2611,0,0.1919,0.1925,0.1937,0.192,0.1901,0.1923,0.1916,0.188,0.1851,0.189,0.1899,0.196,0.2043,0.2173,0.2284,0.2272,0.2242,0.2238,0.208,0.2084,0.2348,0.2239,0.2177,0.2177,0.2177,0.2177,0.2177,0.2177,0.1881,0.1861,0.1873,0.1827,0.1818,0.1764,0.1741,0.1708,0.1712,0.1666,0.1661,0.1698,0.1817,0.1939,0.1978,0.1994,0.1922,0.185,0.1891,0.2066,0.209,0.2112,0.2001,0.1889,0.1889,0.1543,0.154,0.1538]},{"header":{"parameterUnit":"m.s-1","parameterCategory":2,"la1":30.2991,"la2":30.254,"lo1":-89.0895,"lo2":-89.0444,"dy":0.0017,"dx":0.0017,"nx":28,"ny":28,"refTime":"2024-11-23T09:00:00:Z","depth":"0","parameterNumber":3,"parameterNumberName":"V-component_of_CURRENTS"},"data":[0,0,0,0,0,0,0,0,0,0,0,0,0,0,0,0,0,0,0,0,0,0,0,0,0,0,0,0,0,0,0,0,0,0,0,0,0,0,0,0,0,0,0,0,0,0,0,0,0,0,0,0,0,0,0,0,0,0,-0.0322,-0.0323,0,-0.046,-0.0462,-0.0464,-0.0567,-0.0568,-0.0568,-0.0569,-0.0644,-0.0645,-0.0646,0,0,0,0,0,0,0,0,0,0,0,0,0,-0.0188,-0.019,-0.0322,-0.0323,-0.0325,-0.046,-0.0462,-0.0464,-0.0567,-0.0568,-0.0569,-0.0569,-0.0644,-0.0645,-0.0647,0,0,0,0,0,0,0,0,0,0,0,0,0,-0.028,-0.0191,-0.0322,-0.0391,-0.0399,-0.0459,-0.0462,-0.0465,-0.0566,-0.0568,-0.0569,-0.057,-0.0643,-0.0645,-0.0647,-0.0635,0,0,-0.0653,-0.0653,0,0,0,0,0,0,0,0,-0.0274,-0.0285,-0.0379,-0.0387,-0.0395,-0.0496,-0.0442,-0.0518,-0.0566,-0.0504,-0.0569,-0.057,-0.0587,-0.0593,-0.062,-0.0639,-0.0642,-0.0653,-0.0654,-0.0655,-0.0655,0,0,0,0,0,0,0,-0.0268,-0.028,-0.0378,-0.0381,-0.039,-0.043,-0.0444,-0.0458,-0.0537,-0.051,-0.0517,-0.053,-0.0591,-0.0618,-0.0622,-0.0643,-0.0653,-0.0654,-0.0656,-0.0656,-0.059,-0.0588,0,0,0,0,0,0,-0.0244,-0.0273,-0.0374,-0.0382,-0.0334,-0.0431,-0.0447,-0.0464,-0.0539,-0.0552,-0.0529,-0.0534,-0.0614,-0.062,-0.0625,-0.0564,-0.0655,-0.0657,-0.0658,-0.0593,-0.059,-0.0587,0,0,0,0,0,0,-0.0241,-0.0252,-0.0368,-0.0329,-0.0347,-0.0431,-0.045,-0.0466,-0.0492,-0.0554,-0.0566,-0.0538,-0.0615,-0.0622,-0.0623,-0.0569,-0.0657,-0.0659,-0.0597,-0.0592,-0.0588,-0.0474,0,0,0,0,0,0,-0.0237,-0.025,-0.0251,-0.0328,-0.0348,-0.0382,-0.0449,-0.0468,-0.0497,-0.0505,-0.0565,-0.0574,-0.0617,-0.062,-0.0625,-0.0573,-0.0661,-0.06,-0.0595,-0.059,-0.0481,-0.0466,-0.0453,0,0,0,0,0,-0.0231,-0.0223,-0.025,-0.0262,-0.0347,-0.038,-0.0393,-0.046,-0.0496,-0.0491,-0.0533,-0.0572,-0.0588,-0.062,-0.0626,-0.0574,-0.0603,-0.0596,-0.059,-0.0488,-0.0469,-0.0453,0,0,0,0,0,0,-0.0157,-0.0235,-0.0266,-0.028,-0.0317,-0.0397,-0.0402,-0.0447,-0.048,-0.0491,-0.0551,-0.0561,-0.0538,-0.0566,-0.0599,-0.0534,-0.0595,-0.0589,-0.0514,-0.0497,-0.0484,-0.0458,-0.0662,0,0,0,0,0,-0.0141,-0.0159,-0.0228,-0.0232,-0.025,-0.0323,-0.0345,-0.0389,-0.0433,-0.0452,-0.0487,-0.0511,-0.0515,-0.0517,-0.0531,-0.0501,-0.0502,-0.0464,-0.045,-0.0438,-0.0418,-0.036,-0.0338,-0.0565,-0.0565,-0.0565,0,0,-0.0108,-0.0155,-0.0163,-0.0218,-0.0258,-0.0269,-0.0339,-0.0364,-0.0363,-0.0449,-0.0444,-0.0469,-0.0498,-0.0468,-0.0457,-0.0485,-0.0375,-0.043,-0.042,-0.0406,-0.035,-0.0328,-0.0309,-0.0561,-0.0562,-0.0562,0,0,-0.0049,-0.0096,-0.0091,-0.012,-0.0173,-0.022,-0.0219,-0.0283,-0.03,-0.0301,-0.0351,-0.0336,-0.0359,-0.0356,-0.0361,-0.0269,-0.0306,-0.0272,-0.0179,-0.0121,-0.0102,-0.0086,-0.0066,-0.0048,-0.026,-0.026,-0.0259,0,0.0002,-0.002,-0.0087,-0.009,-0.0106,-0.0189,-0.0178,-0.0202,-0.0252,-0.0237,-0.0278,-0.0267,-0.0296,-0.024,-0.0214,-0.0235,-0.0228,-0.0247,-0.0103,-0.0086,-0.0071,-0.0055,-0.0037,-0.0253,-0.0254,-0.0255,-0.0255,0,0.0057,0.004,0.0046,0.0007,-0.0012,-0.0016,-0.0064,-0.0064,-0.0097,-0.0113,-0.0067,-0.0101,-0.0091,-0.0086,-0.0132,-0.0028,-0.0067,-0.0098,-0.0149,-0.0041,-0.0032,-0.0015,-0.0244,-0.0247,-0.0248,-0.025,0,0,0.0175,0.01,0.0105,0.0093,0.0034,0.0025,0.0042,0.0045,0.0076,0.0058,0.0119,0.0121,0.0102,0.0099,0.0063,0.0114,0.0215,0.0058,0.0058,0.0073,0.0321,0.0269,0.0281,0.0207,0.0211,0.0214,0.0281,0,0.0245,0.0249,0.0197,0.0214,0.0205,0.0149,0.0175,0.0171,0.0167,0.021,0.0211,0.0241,0.0173,0.0181,0.0227,0.0212,0.0266,0.0198,0.0219,0.022,0.0158,0.0302,0.0284,0.0342,0.0297,0.03,0.0302,0,0.0316,0.03,0.0319,0.0292,0.0291,0.0297,0.0317,0.0333,0.0371,0.0376,0.0412,0.039,0.0449,0.0376,0.0437,0.0393,0.0376,0.0367,0.0369,0.0295,0.0201,0.0231,0.0373,0.0307,0.0326,0.0324,0.0323,0,0.0395,0.0389,0.0401,0.0391,0.0356,0.0376,0.0373,0.0395,0.0427,0.0484,0.0517,0.0562,0.0583,0.0595,0.0542,0.0504,0.0605,0.0546,0.049,0.0484,0.0462,0.0448,0.0543,0.0623,0.0623,0.0623,0.0623,0,0.0457,0.0469,0.0439,0.0437,0.0482,0.0444,0.0506,0.0512,0.0555,0.0616,0.0607,0.0659,0.0643,0.0668,0.062,0.0608,0.0666,0.0547,0.0524,0.0499,0.0488,0.0418,0.0364,0.0625,0.0625,0.0624,0.0624,0,0.0501,0.0485,0.0497,0.0491,0.05,0.0529,0.0552,0.0599,0.0633,0.0712,0.0732,0.0763,0.0791,0.0758,0.0776,0.0704,0.0651,0.067,0.0618,0.0589,0.0458,0.0409,0.0447,0.0422,0.0642,0.0642,0.0641,0,0.0504,0.0514,0.0532,0.0547,0.0537,0.0577,0.0603,0.0631,0.0673,0.0769,0.081,0.0864,0.089,0.0887,0.0795,0.0735,0.0656,0.066,0.0595,0.0493,0.0423,0.0362,0.0334,0.0607,0.0606,0.0606,0.0605,0,0.0506,0.0521,0.0524,0.0569,0.0596,0.0638,0.0675,0.0719,0.077,0.0834,0.0913,0.0952,0.0946,0.0886,0.0791,0.0732,0.0595,0.0644,0.0586,0.0461,0.0361,0.031,0.0483,0.0601,0.0601,0.0601,0.0602,0.0602,0.0502,0.0521,0.054,0.0583,0.0624,0.0677,0.0713,0.0759,0.083,0.0916,0.0963,0.1023,0.0956,0.0829,0.0733,0.0557,0.0552,0.0489,0.0455,0.0414,0.0356,0.0498,0.0551,0.0551,0.0551,0.0551,0.0552,0,0.0491,0.0517,0.0552,0.0603,0.0649,0.0673,0.0744,0.0784,0.0854,0.0937,0.0999,0.1012,0.0883,0.0759,0.0533,0.0393,0.0336,0.0328,0.0263,0.0257,0.0439,0.0402,0.037,0.037,0.037,0.037,0.037,0.037,0.0487,0.0514,0.0542,0.0608,0.0648,0.0708,0.0746,0.0809,0.0873,0.0961,0.1006,0.1046,0.0995,0.0593,0.0312,0.0241,0.0137,0.0099,0.0071,0.02,0.0212,0.0224,0.0179,0.0102,0.0101,-0.0103,-0.0105,-0.0107]}],[{"header":{"parameterUnit":"m.s-1","parameterCategory":2,"la1":30.2991,"la2":30.254,"lo1":-89.0895,"lo2":-89.0444,"dy":0.0017,"dx":0.0017,"nx":28,"ny":28,"refTime":"2024-11-23T09:00:00:Z","depth":"2","parameterNumber":2,"parameterNumberName":"U-component_of_CURRENTS"},"data":[0,0,0,0,0,0,0,0,0,0,0,0,0,0,0,0,0,0,0,0,0,0,0,0,0,0,0,0,0,0,0,0,0,0,0,0,0,0,0,0,0,0,0,0,0,0,0,0,0,0,0,0,0,0,0,0,0,0,-0.032,-0.032,0,-0.0312,-0.0312,-0.0312,-0.0313,-0.0313,-0.0313,-0.0313,-0.0369,-0.037,-0.0372,0,0,0,0,0,0,0,0,0,0,0,0,0,-0.0308,-0.0308,-0.032,-0.032,-0.032,-0.0313,-0.0312,-0.0312,-0.0313,-0.0313,-0.0313,-0.0314,-0.0369,-0.037,-0.0372,0,0,0,0,0,0,0,0,0,0,0,0,0,-0.0308,-0.0308,-0.032,-0.032,-0.0319,-0.0313,-0.0312,-0.0312,-0.0313,-0.0313,-0.0313,-0.0314,-0.0368,-0.037,-0.0372,-0.0381,0,0,-0.0378,-0.0379,0,0,0,0,0,0,0,0,-0.0308,-0.0309,-0.032,-0.032,-0.0319,-0.0314,-0.0328,-0.0338,-0.0313,-0.0315,-0.0313,-0.0314,-0.0356,-0.0359,-0.0357,-0.0384,-0.0386,-0.0379,-0.038,-0.0381,-0.0381,0,0,0,0,0,0,0,-0.0308,-0.0309,-0.0317,-0.032,-0.0319,-0.031,-0.0311,-0.033,-0.0336,-0.0315,-0.0315,-0.0314,-0.0357,-0.0355,-0.0358,-0.0387,-0.0378,-0.038,-0.0382,-0.0382,-0.0376,-0.0374,0,0,0,0,0,0,-0.0311,-0.0309,-0.0317,-0.0317,-0.0314,-0.031,-0.0311,-0.0315,-0.0335,-0.0337,-0.0314,-0.0315,-0.0351,-0.0356,-0.036,-0.0316,-0.0381,-0.0383,-0.0384,-0.0377,-0.0375,-0.0374,0,0,0,0,0,0,-0.031,-0.0312,-0.0318,-0.0312,-0.0312,-0.0311,-0.0316,-0.0315,-0.0308,-0.0333,-0.0337,-0.0307,-0.0351,-0.0357,-0.0365,-0.0321,-0.0383,-0.0385,-0.0379,-0.0376,-0.0375,-0.0264,0,0,0,0,0,0,-0.031,-0.0312,-0.0311,-0.0313,-0.0313,-0.0303,-0.0315,-0.0315,-0.0308,-0.0308,-0.0329,-0.0334,-0.0352,-0.0362,-0.0367,-0.0324,-0.0387,-0.038,-0.0378,-0.0375,-0.0269,-0.0258,-0.0249,0,0,0,0,0,-0.031,-0.0304,-0.0312,-0.0312,-0.0314,-0.0302,-0.0301,-0.03,-0.0307,-0.0296,-0.031,-0.0333,-0.0348,-0.0363,-0.0369,-0.0326,-0.0382,-0.0378,-0.0375,-0.0274,-0.026,-0.0249,0,0,0,0,0,0,-0.0294,-0.0304,-0.0312,-0.0309,-0.0304,-0.0302,-0.029,-0.0296,-0.0297,-0.0296,-0.0325,-0.0331,-0.0318,-0.0344,-0.0359,-0.0317,-0.0365,-0.0363,-0.0285,-0.0273,-0.0263,-0.0232,-0.0389,0,0,0,0,0,-0.0293,-0.0293,-0.0298,-0.0293,-0.0289,-0.0291,-0.0285,-0.0284,-0.0287,-0.0287,-0.03,-0.0311,-0.031,-0.031,-0.0321,-0.0306,-0.0309,-0.0281,-0.027,-0.0261,-0.024,-0.0198,-0.0181,-0.0363,-0.0363,-0.0363,0,0,-0.0282,-0.0289,-0.0288,-0.0289,-0.0285,-0.0264,-0.0287,-0.0271,-0.0247,-0.0295,-0.0268,-0.0282,-0.0301,-0.0274,-0.027,-0.029,-0.0214,-0.0257,-0.0249,-0.0233,-0.0192,-0.0174,-0.0158,-0.0361,-0.0362,-0.0362,0,0,-0.0254,-0.0269,-0.0256,-0.0249,-0.0241,-0.0239,-0.0234,-0.0227,-0.0218,-0.0201,-0.0218,-0.0201,-0.0217,-0.02,-0.0199,-0.0142,-0.0165,-0.015,-0.0066,-0.0024,-0.0008,0.0006,0.0017,0.0031,-0.0139,-0.0138,-0.0138,0,-0.0236,-0.0233,-0.0246,-0.0226,-0.0214,-0.0225,-0.0197,-0.0184,-0.0178,-0.0161,-0.018,-0.0153,-0.017,-0.0116,-0.0087,-0.0114,-0.0108,-0.0109,-0.0008,0.0006,0.0018,0.0027,0.0041,-0.0133,-0.0133,-0.0134,-0.0135,0,-0.0203,-0.0192,-0.0179,-0.0162,-0.0145,-0.0126,-0.0112,-0.0092,-0.0087,-0.0073,-0.0027,-0.0034,-0.0011,-0.0009,-0.0028,0.0058,0.0027,-0.0003,-0.0034,0.0044,0.0047,0.006,-0.0125,-0.0127,-0.0128,-0.013,0,0,-0.0186,-0.016,-0.0155,-0.0143,-0.0114,-0.0103,-0.0049,-0.0012,0.0021,0.0047,0.01,0.0133,0.0139,0.0142,0.0129,0.0173,0.0263,0.0135,0.0135,0.0157,0.0343,0.0273,0.0279,0.0256,0.0259,0.0261,0.0306,0,-0.0156,-0.0123,-0.0104,-0.0059,-0.0048,-0.0023,0.0023,0.0061,0.0088,0.0135,0.0167,0.0205,0.0193,0.0211,0.0264,0.0252,0.0304,0.0253,0.0255,0.0255,0.0193,0.0295,0.0236,0.0268,0.0318,0.032,0.0322,0,-0.014,-0.0124,-0.0082,-0.0035,-0.0022,0.0019,0.0078,0.0122,0.0194,0.0222,0.0292,0.0301,0.0383,0.0348,0.0426,0.0394,0.0395,0.0387,0.0387,0.0298,0.0211,0.0199,0.0289,0.0343,0.0341,0.034,0.0338,0,-0.0175,-0.0112,-0.0086,-0.007,-0.0009,0.0033,0.0077,0.0149,0.019,0.0286,0.0321,0.0411,0.0448,0.049,0.0489,0.0469,0.0549,0.0507,0.0449,0.0441,0.038,0.0362,0.0582,0.0582,0.0581,0.0581,0.0581,0,-0.0187,-0.016,-0.0097,-0.009,-0.0035,0.002,0.009,0.0149,0.0236,0.0298,0.0369,0.042,0.0489,0.053,0.053,0.0534,0.059,0.0495,0.0468,0.0412,0.0398,0.0446,0.043,0.0583,0.0583,0.0582,0.0582,0,-0.0234,-0.02,-0.0161,-0.0087,-0.0058,-0.0017,0.009,0.0141,0.0227,0.0312,0.0348,0.0446,0.0507,0.0545,0.0596,0.0571,0.0579,0.0561,0.0476,0.044,0.0432,0.0421,0.0519,0.0517,0.0516,0.0514,0.0513,0,-0.0254,-0.0247,-0.0171,-0.0136,-0.0093,-0.0023,0.003,0.0126,0.0182,0.0314,0.0349,0.044,0.0469,0.0514,0.0502,0.0501,0.0555,0.0459,0.0416,0.0471,0.0436,0.0427,0.0418,0.0374,0.0372,0.037,0.0369,0,-0.0279,-0.0251,-0.0217,-0.0155,-0.0096,-0.0034,0.005,0.0081,0.02,0.0259,0.0344,0.037,0.0403,0.0394,0.0394,0.0373,0.0455,0.0421,0.0542,0.0384,0.0335,0.0299,0.0296,0.0354,0.0356,0.0357,0.0358,0.0358,-0.0278,-0.0261,-0.0212,-0.0146,-0.0087,-0.0027,0.0016,0.0083,0.0147,0.023,0.0264,0.03,0.029,0.025,0.0268,0.031,0.0301,0.0315,0.0321,0.0329,0.0289,0.0239,0.0232,0.0233,0.0234,0.0234,0.0235,0,-0.0274,-0.024,-0.0193,-0.0127,-0.0075,-0.0021,0.0048,0.0068,0.012,0.017,0.0198,0.0159,0.0134,0.0201,0.0216,0.0189,0.0187,0.0224,0.0248,0.0258,0.0269,0.0229,0.0156,0.0156,0.0157,0.0157,0,0,-0.027,-0.0234,-0.0211,-0.0123,-0.0059,0.0012,0.0055,0.0063,0.009,0.0099,0.0133,0.0063,0.0125,0.0126,0.0116,0.0182,0.0221,0.0162,0.0208,0.0242,0.0254,0.0284,0.0229,0,0,0,0,0]},{"header":{"parameterUnit":"m.s-1","parameterCategory":2,"la1":30.2991,"la2":30.254,"lo1":-89.0895,"lo2":-89.0444,"dy":0.0017,"dx":0.0017,"nx":28,"ny":28,"refTime":"2024-11-23T09:00:00:Z","depth":"2","parameterNumber":3,"parameterNumberName":"V-component_of_CURRENTS"},"data":[0,0,0,0,0,0,0,0,0,0,0,0,0,0,0,0,0,0,0,0,0,0,0,0,0,0,0,0,0,0,0,0,0,0,0,0,0,0,0,0,0,0,0,0,0,0,0,0,0,0,0,0,0,0,0,0,0,0,-0.0107,-0.0107,0,-0.0128,-0.0128,-0.0128,-0.0144,-0.0144,-0.0144,-0.0144,-0.0213,-0.0215,-0.0216,0,0,0,0,0,0,0,0,0,0,0,0,0,-0.0049,-0.005,-0.0107,-0.0107,-0.0107,-0.0128,-0.0128,-0.0129,-0.0144,-0.0144,-0.0144,-0.0144,-0.0213,-0.0214,-0.0217,0,0,0,0,0,0,0,0,0,0,0,0,0,-0.0073,-0.0051,-0.0107,-0.0118,-0.0119,-0.0128,-0.0128,-0.0129,-0.0144,-0.0144,-0.0144,-0.0145,-0.0212,-0.0214,-0.0217,-0.0228,0,0,-0.0225,-0.0226,0,0,0,0,0,0,0,0,-0.0071,-0.0075,-0.0116,-0.0117,-0.0118,-0.0134,-0.0133,-0.0164,-0.0144,-0.0134,-0.0144,-0.0145,-0.0191,-0.0195,-0.0198,-0.0231,-0.0234,-0.0225,-0.0226,-0.0227,-0.0228,0,0,0,0,0,0,0,-0.007,-0.0074,-0.0115,-0.0116,-0.0118,-0.0111,-0.0115,-0.0139,-0.0162,-0.0135,-0.0136,-0.0139,-0.0192,-0.0195,-0.02,-0.0235,-0.0225,-0.0227,-0.0229,-0.023,-0.0367,-0.0369,0,0,0,0,0,0,-0.0069,-0.0073,-0.0114,-0.0116,-0.0095,-0.0112,-0.0116,-0.0128,-0.0161,-0.0165,-0.0139,-0.0139,-0.0191,-0.0197,-0.0202,-0.0263,-0.0227,-0.023,-0.0231,-0.0365,-0.0367,-0.037,0,0,0,0,0,0,-0.0068,-0.0073,-0.0114,-0.0094,-0.0099,-0.0113,-0.0126,-0.0129,-0.0146,-0.0163,-0.0168,-0.0155,-0.0191,-0.0199,-0.025,-0.0264,-0.0231,-0.0233,-0.0362,-0.0366,-0.0368,-0.0356,0,0,0,0,0,0,-0.0066,-0.0073,-0.0084,-0.0094,-0.01,-0.0127,-0.0126,-0.0129,-0.0147,-0.0148,-0.0179,-0.0184,-0.0192,-0.0246,-0.0252,-0.0267,-0.0235,-0.036,-0.0364,-0.0367,-0.0353,-0.0358,-0.0362,0,0,0,0,0,-0.0064,-0.0077,-0.0085,-0.009,-0.0114,-0.0127,-0.013,-0.014,-0.0148,-0.0157,-0.019,-0.0184,-0.0276,-0.025,-0.0257,-0.0272,-0.0358,-0.0362,-0.0367,-0.0351,-0.0357,-0.0362,0,0,0,0,0,0,-0.0059,-0.008,-0.0088,-0.0108,-0.0121,-0.013,-0.0138,-0.0149,-0.018,-0.0189,-0.0207,-0.0216,-0.0265,-0.0282,-0.0253,-0.033,-0.0318,-0.0324,-0.0304,-0.0309,-0.0313,-0.0278,-0.0237,0,0,0,0,0,-0.0063,-0.0079,-0.0095,-0.0112,-0.0119,-0.0133,-0.0141,-0.015,-0.0176,-0.0189,-0.0216,-0.0254,-0.0287,-0.0309,-0.034,-0.038,-0.0378,-0.0401,-0.0405,-0.0408,-0.0388,-0.0415,-0.0418,-0.0385,-0.0385,-0.0385,0,0,-0.0065,-0.0079,-0.0088,-0.0112,-0.0122,-0.0134,-0.0139,-0.0156,-0.017,-0.0193,-0.0234,-0.0267,-0.0304,-0.0347,-0.0371,-0.0364,-0.042,-0.0414,-0.0416,-0.0394,-0.042,-0.0422,-0.0425,-0.0389,-0.0388,-0.0387,0,0,-0.0073,-0.0091,-0.0105,-0.0115,-0.0134,-0.0142,-0.0152,-0.0176,-0.019,-0.0232,-0.0256,-0.0298,-0.0355,-0.0377,-0.0396,-0.0447,-0.044,-0.0472,-0.0461,-0.0488,-0.0489,-0.0491,-0.049,-0.0491,-0.0475,-0.0475,-0.0475,0,-0.0078,-0.0097,-0.011,-0.0123,-0.013,-0.0149,-0.0161,-0.0177,-0.0219,-0.0231,-0.0247,-0.0329,-0.0361,-0.0402,-0.0422,-0.045,-0.0459,-0.043,-0.0488,-0.049,-0.0491,-0.049,-0.0492,-0.0475,-0.0475,-0.0475,-0.0475,0,-0.0092,-0.0108,-0.0115,-0.0139,-0.0148,-0.0163,-0.018,-0.0202,-0.0226,-0.0242,-0.0291,-0.0338,-0.0379,-0.041,-0.0428,-0.0465,-0.0465,-0.0485,-0.0461,-0.0492,-0.0491,-0.0493,-0.0475,-0.0475,-0.0475,-0.0475,0,0,-0.011,-0.0124,-0.0129,-0.0133,-0.0158,-0.0164,-0.0186,-0.0207,-0.0215,-0.0263,-0.0277,-0.0346,-0.0363,-0.0387,-0.0424,-0.0452,-0.0474,-0.0472,-0.0474,-0.0445,-0.0517,-0.0428,-0.0421,-0.0507,-0.0508,-0.0508,-0.0509,0,-0.0122,-0.014,-0.0146,-0.016,-0.0168,-0.018,-0.019,-0.0209,-0.0231,-0.0251,-0.0291,-0.0323,-0.0358,-0.0379,-0.0412,-0.046,-0.0479,-0.047,-0.0513,-0.0513,-0.0409,-0.0421,-0.044,-0.0435,-0.0511,-0.0511,-0.0511,0,-0.0136,-0.0145,-0.016,-0.0159,-0.0163,-0.0174,-0.0184,-0.0196,-0.0218,-0.0231,-0.0262,-0.0289,-0.0332,-0.0359,-0.0429,-0.0425,-0.0462,-0.0497,-0.0498,-0.0413,-0.0427,-0.042,-0.0435,-0.0514,-0.0514,-0.0513,-0.0513,0,-0.0135,-0.0151,-0.0161,-0.0164,-0.0171,-0.0177,-0.0183,-0.0197,-0.019,-0.0218,-0.0211,-0.0269,-0.0284,-0.0351,-0.0407,-0.0428,-0.047,-0.0509,-0.0459,-0.0454,-0.0472,-0.0466,-0.0547,-0.0547,-0.0547,-0.0547,-0.0547,0,-0.0141,-0.0148,-0.0161,-0.0164,-0.016,-0.0171,-0.0166,-0.0175,-0.0174,-0.015,-0.0199,-0.0188,-0.0285,-0.0315,-0.0387,-0.0405,-0.0453,-0.0438,-0.0445,-0.0469,-0.0463,-0.0536,-0.0535,-0.0547,-0.0547,-0.0547,-0.0547,0,-0.0132,-0.0147,-0.0147,-0.0157,-0.0158,-0.0154,-0.0138,-0.0124,-0.0132,-0.0101,-0.0102,-0.0126,-0.0159,-0.0235,-0.0325,-0.0351,-0.0402,-0.04,-0.0397,-0.0401,-0.0376,-0.0375,-0.0346,-0.0343,-0.034,-0.0338,-0.0336,0,-0.0128,-0.0131,-0.0132,-0.0122,-0.0127,-0.0121,-0.0103,-0.0105,-0.008,-0.0054,-0.0028,-0.0043,-0.0043,-0.0116,-0.0183,-0.0257,-0.0319,-0.0297,-0.0329,-0.0344,-0.0354,-0.0357,-0.036,-0.0367,-0.0366,-0.0364,-0.0363,0,-0.011,-0.0113,-0.0108,-0.0085,-0.0072,-0.0046,-0.0026,0.0001,0.0018,0.0045,0.0086,0.0085,0.0046,-0.0031,-0.0099,-0.0153,-0.0286,-0.0267,-0.0312,-0.0388,-0.0356,-0.0368,-0.0372,-0.0353,-0.0354,-0.0354,-0.0355,-0.0355,-0.0088,-0.0075,-0.0064,-0.0039,-0.0012,0.0029,0.0053,0.0086,0.013,0.0151,0.015,0.0134,0.0022,-0.0059,-0.011,-0.0136,-0.0148,-0.0218,-0.0226,-0.0234,-0.0209,-0.0171,-0.0129,-0.0128,-0.0128,-0.0128,-0.0128,0,-0.0059,-0.0041,-0.0014,0.0017,0.0057,0.0064,0.0114,0.0136,0.0191,0.0175,0.0179,0.0068,0.0,-0.0079,-0.0095,-0.0116,-0.0164,-0.0141,-0.024,-0.0249,-0.0258,-0.0238,-0.0163,-0.0163,-0.0163,-0.0163,0,0,-0.004,-0.0008,0.0007,0.0073,0.0101,0.0155,0.0185,0.0213,0.0211,0.0173,0.0135,0.0038,-0.0026,-0.0088,-0.0145,-0.0136,-0.0181,-0.0132,-0.0104,-0.0224,-0.0232,-0.0302,-0.028,0,0,0,0,0]}],[{"header":{"parameterUnit":"m.s-1","parameterCategory":2,"la1":30.2991,"la2":30.254,"lo1":-89.0895,"lo2":-89.0444,"dy":0.0017,"dx":0.0017,"nx":28,"ny":28,"refTime":"2024-11-23T09:00:00:Z","depth":"4","parameterNumber":2,"parameterNumberName":"U-component_of_CURRENTS"},"data":[0,0,0,0,0,0,0,0,0,0,0,0,0,0,0,0,0,0,0,0,0,0,0,0,0,0,0,0,0,0,0,0,0,0,0,0,0,0,0,0,0,0,0,0,0,0,0,0,0,0,0,0,0,0,0,0,0,0,-0.0415,-0.0416,0,-0.043,-0.043,-0.043,-0.0425,-0.0425,-0.0425,-0.0425,-0.0432,-0.0433,-0.0433,0,0,0,0,0,0,0,0,0,0,0,0,0,-0.0396,-0.0396,-0.0415,-0.0416,-0.0416,-0.043,-0.043,-0.043,-0.0425,-0.0425,-0.0425,-0.0425,-0.0432,-0.0433,-0.0433,0,0,0,0,0,0,0,0,0,0,0,0,0,-0.0406,-0.0396,-0.0415,-0.0416,-0.0416,-0.043,-0.043,-0.043,-0.0425,-0.0425,-0.0425,-0.0424,-0.0432,-0.0433,-0.0433,-0.0444,0,0,-0.0435,-0.0435,0,0,0,0,0,0,0,0,-0.0405,-0.0406,-0.0415,-0.0416,-0.0416,-0.0426,-0.0426,-0.0435,-0.0426,-0.0421,-0.0425,-0.0424,-0.043,-0.0431,-0.0434,-0.0445,-0.0445,-0.0435,-0.0436,-0.0436,-0.0436,0,0,0,0,0,0,0,-0.0404,-0.0406,-0.042,-0.0416,-0.0416,-0.0419,-0.042,-0.0427,-0.0427,-0.0422,-0.0421,-0.0424,-0.043,-0.0433,-0.0434,-0.0445,-0.0435,-0.0436,-0.0436,-0.0436,-0.0474,-0.0474,0,0,0,0,0,0,-0.0404,-0.0405,-0.042,-0.0421,-0.041,-0.042,-0.0421,-0.0423,-0.0427,-0.0428,-0.0424,-0.0424,-0.0432,-0.0433,-0.0434,-0.045,-0.0436,-0.0436,-0.0437,-0.0473,-0.0474,-0.0474,0,0,0,0,0,0,-0.0403,-0.0405,-0.0419,-0.0414,-0.0416,-0.042,-0.0423,-0.0423,-0.0428,-0.0429,-0.043,-0.043,-0.0432,-0.0433,-0.0443,-0.045,-0.0437,-0.0437,-0.0472,-0.0473,-0.0474,-0.0481,0,0,0,0,0,0,-0.0403,-0.0405,-0.041,-0.0414,-0.0416,-0.0431,-0.0423,-0.0424,-0.0431,-0.043,-0.0434,-0.0434,-0.0432,-0.0443,-0.0444,-0.0451,-0.0438,-0.0471,-0.0473,-0.0474,-0.048,-0.0482,-0.0483,0,0,0,0,0,-0.0402,-0.0411,-0.041,-0.0412,-0.0422,-0.0431,-0.0433,-0.0434,-0.0431,-0.0437,-0.0438,-0.0434,-0.0451,-0.0444,-0.0445,-0.0452,-0.0471,-0.0472,-0.0474,-0.0479,-0.0481,-0.0483,0,0,0,0,0,0,-0.0412,-0.0412,-0.0411,-0.0421,-0.0427,-0.0431,-0.044,-0.0438,-0.0444,-0.0444,-0.0442,-0.0442,-0.0455,-0.0455,-0.0447,-0.0467,-0.0461,-0.0462,-0.0464,-0.0466,-0.0468,-0.0474,-0.0438,0,0,0,0,0,-0.0415,-0.0419,-0.0421,-0.0432,-0.0435,-0.0438,-0.0444,-0.0443,-0.0447,-0.0449,-0.0451,-0.0455,-0.0462,-0.0465,-0.0472,-0.0483,-0.0484,-0.0489,-0.0491,-0.0493,-0.05,-0.0514,-0.0518,-0.0479,-0.0479,-0.0479,0,0,-0.0423,-0.0424,-0.0428,-0.0434,-0.044,-0.0446,-0.0441,-0.0451,-0.0455,-0.045,-0.046,-0.0463,-0.0468,-0.0479,-0.0484,-0.0479,-0.0501,-0.0494,-0.0495,-0.0502,-0.0516,-0.052,-0.0523,-0.048,-0.048,-0.0479,0,0,-0.0439,-0.0442,-0.0449,-0.0453,-0.0459,-0.046,-0.0463,-0.0467,-0.0468,-0.0478,-0.0476,-0.0484,-0.0494,-0.0497,-0.0499,-0.0518,-0.0513,-0.052,-0.0531,-0.0545,-0.0549,-0.0552,-0.0542,-0.0544,-0.0518,-0.0518,-0.0518,0,-0.045,-0.0455,-0.0454,-0.0461,-0.0466,-0.0465,-0.0473,-0.0477,-0.0483,-0.0485,-0.0484,-0.0499,-0.0503,-0.0513,-0.0522,-0.0522,-0.0523,-0.052,-0.0547,-0.055,-0.0553,-0.0543,-0.0545,-0.0519,-0.0519,-0.0519,-0.0519,0,-0.0464,-0.0472,-0.0479,-0.0483,-0.0489,-0.0498,-0.0498,-0.0504,-0.0504,-0.0505,-0.0516,-0.0521,-0.0528,-0.0532,-0.0535,-0.0555,-0.0545,-0.0549,-0.054,-0.0558,-0.0545,-0.0547,-0.0519,-0.0519,-0.0519,-0.0519,0,0,-0.0479,-0.0486,-0.0489,-0.0493,-0.0499,-0.0504,-0.0513,-0.0518,-0.0523,-0.0528,-0.0534,-0.055,-0.0549,-0.0554,-0.0554,-0.0569,-0.0586,-0.0571,-0.0572,-0.0557,-0.0603,-0.0529,-0.0524,-0.0596,-0.0597,-0.0598,-0.0579,0,-0.049,-0.0502,-0.0503,-0.0518,-0.0524,-0.0525,-0.0533,-0.0537,-0.0539,-0.0544,-0.0547,-0.0555,-0.0557,-0.0561,-0.0577,-0.0586,-0.0596,-0.059,-0.0592,-0.0591,-0.0521,-0.0525,-0.06,-0.0581,-0.0582,-0.0582,-0.0582,0,-0.0499,-0.0505,-0.0518,-0.0529,-0.0532,-0.054,-0.0547,-0.0554,-0.0559,-0.0561,-0.0566,-0.0565,-0.0579,-0.0584,-0.0603,-0.0599,-0.0607,-0.0613,-0.0612,-0.0545,-0.0522,-0.0564,-0.0586,-0.0586,-0.0585,-0.0585,-0.0585,0,-0.0497,-0.0515,-0.0524,-0.0528,-0.054,-0.0546,-0.0552,-0.0558,-0.0563,-0.057,-0.0572,-0.0581,-0.0585,-0.0602,-0.0598,-0.0611,-0.0613,-0.0627,-0.0564,-0.0558,-0.0628,-0.0625,-0.0651,-0.0651,-0.0651,-0.0651,-0.0651,0,-0.05,-0.051,-0.0525,-0.0528,-0.0538,-0.0548,-0.0558,-0.0563,-0.0572,-0.0573,-0.058,-0.0578,-0.0596,-0.0589,-0.0597,-0.0568,-0.0607,-0.0565,-0.0552,-0.0628,-0.0626,-0.0628,-0.0625,-0.0651,-0.0651,-0.0651,-0.0651,0,-0.0493,-0.0505,-0.0516,-0.0532,-0.0535,-0.0541,-0.0555,-0.0559,-0.0574,-0.0574,-0.0576,-0.058,-0.0566,-0.0558,-0.0571,-0.0552,-0.054,-0.0523,-0.0579,-0.057,-0.048,-0.0479,-0.0462,-0.046,-0.0457,-0.0455,-0.0454,0,-0.0488,-0.0493,-0.0511,-0.0511,-0.0517,-0.0528,-0.053,-0.0551,-0.0553,-0.0567,-0.0562,-0.0552,-0.0545,-0.0486,-0.0497,-0.0472,-0.0475,-0.0459,-0.05,-0.0473,-0.0463,-0.0465,-0.0466,-0.045,-0.045,-0.0449,-0.0448,0,-0.0475,-0.0486,-0.0491,-0.0491,-0.0494,-0.0496,-0.0503,-0.0504,-0.0523,-0.0549,-0.0522,-0.0498,-0.0471,-0.0451,-0.0414,-0.041,-0.0465,-0.0436,-0.0442,-0.0481,-0.0458,-0.0451,-0.0455,-0.044,-0.0442,-0.0442,-0.0443,0,-0.0464,-0.0461,-0.0466,-0.046,-0.0463,-0.0449,-0.0463,-0.0457,-0.0462,-0.0483,-0.0474,-0.046,-0.0468,-0.0418,-0.0394,-0.0361,-0.0375,-0.0376,-0.0385,-0.0394,-0.0378,-0.0339,-0.0272,0,0,0,0,0,-0.0447,-0.0435,-0.0431,-0.0416,-0.0417,-0.0414,-0.0433,-0.045,-0.0477,-0.0443,-0.0455,-0.0424,-0.0379,-0.0376,-0.0329,-0.0368,-0.0377,-0.0313,-0.0384,-0.0397,-0.0406,-0.0391,0,0,0,0,0,0,-0.0432,-0.0431,-0.0419,-0.0377,-0.0356,-0.035,-0.0359,-0.0381,-0.0366,-0.0396,-0.0372,-0.0391,-0.0352,-0.0389,-0.0316,-0.0313,-0.0347,-0.0309,-0.0307,-0.0392,-0.04,-0.0407,-0.0395,0,0,0,0,0]},{"header":{"parameterUnit":"m.s-1","parameterCategory":2,"la1":30.2991,"la2":30.254,"lo1":-89.0895,"lo2":-89.0444,"dy":0.0017,"dx":0.0017,"nx":28,"ny":28,"refTime":"2024-11-23T09:00:00:Z","depth":"4","parameterNumber":3,"parameterNumberName":"V-component_of_CURRENTS"},"data":[0,0,0,0,0,0,0,0,0,0,0,0,0,0,0,0,0,0,0,0,0,0,0,0,0,0,0,0,0,0,0,0,0,0,0,0,0,0,0,0,0,0,0,0,0,0,0,0,0,0,0,0,0,0,0,0,0,0,0.0171,0.0171,0,0.0168,0.0168,0.0168,0.0189,0.0189,0.019,0.0191,0.018,0.0179,0.0178,0,0,0,0,0,0,0,0,0,0,0,0,0,0.0187,0.0187,0.0171,0.0171,0.0171,0.0168,0.0168,0.0168,0.0189,0.0189,0.019,0.0191,0.018,0.0179,0.0178,0,0,0,0,0,0,0,0,0,0,0,0,0,0.0182,0.0187,0.0171,0.0182,0.0183,0.0168,0.0168,0.0168,0.0189,0.0189,0.019,0.0191,0.018,0.0179,0.0178,0.0151,0,0,0.0174,0.0173,0,0,0,0,0,0,0,0,0.0182,0.0181,0.018,0.0181,0.0182,0.018,0.017,0.0162,0.0188,0.0186,0.0191,0.0192,0.0179,0.0178,0.0174,0.015,0.015,0.0174,0.0173,0.0172,0.0172,0,0,0,0,0,0,0,0.0182,0.0181,0.017,0.018,0.0181,0.0184,0.0184,0.0168,0.0176,0.0186,0.0188,0.0188,0.0179,0.0176,0.0174,0.015,0.0174,0.0173,0.0172,0.0171,0.0101,0.01,0,0,0,0,0,0,0.0183,0.0181,0.017,0.017,0.0185,0.0183,0.0183,0.0179,0.0177,0.0178,0.0187,0.0189,0.0177,0.0176,0.0174,0.0142,0.0172,0.0171,0.017,0.0102,0.0101,0.0099,0,0,0,0,0,0,0.0183,0.0182,0.017,0.0176,0.0175,0.0182,0.0177,0.0179,0.0179,0.0178,0.0178,0.0186,0.0178,0.0176,0.0158,0.0142,0.017,0.0169,0.0103,0.0101,0.01,0.0077,0,0,0,0,0,0,0.0183,0.0182,0.0177,0.0176,0.0175,0.0157,0.0177,0.0178,0.0178,0.018,0.0177,0.0177,0.0179,0.016,0.0157,0.014,0.0168,0.0104,0.0102,0.01,0.0079,0.0075,0.0071,0,0,0,0,0,0.0184,0.0167,0.0177,0.0176,0.0169,0.0156,0.0155,0.0164,0.0177,0.0169,0.0169,0.0177,0.0145,0.0158,0.0155,0.0137,0.0105,0.0103,0.0101,0.0081,0.0076,0.0071,0,0,0,0,0,0,0.0163,0.0168,0.0179,0.0163,0.0161,0.016,0.0152,0.0161,0.0155,0.0158,0.0163,0.0162,0.0139,0.0138,0.0152,0.011,0.0126,0.0123,0.0112,0.0107,0.0104,0.0104,0.0167,0,0,0,0,0,0.0159,0.0153,0.0157,0.0143,0.0144,0.015,0.0146,0.0152,0.0148,0.0147,0.0146,0.0139,0.0124,0.0118,0.0104,0.008,0.0086,0.0066,0.0062,0.0058,0.0056,0.0047,0.0043,0.0091,0.0091,0.0091,0,0,0.0145,0.0148,0.0144,0.014,0.0141,0.0129,0.0149,0.014,0.0129,0.0144,0.0127,0.0123,0.0113,0.0088,0.0078,0.0088,0.0048,0.0055,0.0053,0.0052,0.0044,0.004,0.0036,0.009,0.009,0.009,0,0,0.0113,0.012,0.0107,0.0106,0.0107,0.011,0.0108,0.0107,0.0108,0.009,0.0097,0.0085,0.0064,0.0055,0.0047,0.001,0.0026,0.0006,-0.0013,-0.0021,-0.0024,-0.0027,-0.0022,-0.0024,0.0005,0.0005,0.0005,0,0.0095,0.0087,0.0098,0.0087,0.0084,0.0101,0.0085,0.008,0.0074,0.0071,0.0081,0.0052,0.0046,0.0017,0.0006,0.0001,0.0007,0.0009,-0.0024,-0.0028,-0.003,-0.0024,-0.0026,0.0004,0.0004,0.0004,0.0004,0,0.006,0.0054,0.0044,0.0041,0.0035,0.0024,0.0026,0.0019,0.0027,0.0027,0.0007,0.0001,-0.0012,-0.002,-0.0019,-0.0046,-0.0032,-0.0028,-0.0008,-0.0036,-0.0028,-0.003,0.0002,0.0002,0.0003,0.0003,0,0,0.0019,0.002,0.0018,0.0018,0.0015,0.0007,-0.0012,-0.0021,-0.0028,-0.0033,-0.0045,-0.0069,-0.0058,-0.0067,-0.0065,-0.0073,-0.0088,-0.0059,-0.0059,-0.0046,-0.0094,-0.0098,-0.01,-0.0086,-0.0086,-0.0087,-0.0078,0,-0.0008,-0.0027,-0.0025,-0.0046,-0.005,-0.0043,-0.0062,-0.0068,-0.0067,-0.0077,-0.0077,-0.009,-0.0081,-0.0084,-0.0092,-0.0091,-0.0096,-0.009,-0.0075,-0.0075,-0.0069,-0.0104,-0.0089,-0.0079,-0.008,-0.008,-0.008,0,-0.0035,-0.004,-0.006,-0.0067,-0.0071,-0.0087,-0.0095,-0.0111,-0.012,-0.0119,-0.0124,-0.0119,-0.0134,-0.0119,-0.0126,-0.0121,-0.0112,-0.0107,-0.0106,-0.0103,-0.0083,-0.0048,-0.0084,-0.0084,-0.0083,-0.0083,-0.0083,0,-0.0041,-0.0063,-0.0073,-0.0077,-0.009,-0.0101,-0.0111,-0.0121,-0.0134,-0.0141,-0.0147,-0.0154,-0.0159,-0.0153,-0.0143,-0.0133,-0.0146,-0.0129,-0.0122,-0.0121,-0.0107,-0.0104,-0.0137,-0.0137,-0.0137,-0.0137,-0.0137,0,-0.0055,-0.0066,-0.0076,-0.008,-0.0104,-0.0108,-0.0134,-0.0142,-0.0156,-0.0178,-0.0166,-0.0182,-0.0169,-0.0171,-0.0155,-0.015,-0.0155,-0.0134,-0.0127,-0.0117,-0.0115,-0.0108,-0.0105,-0.0136,-0.0136,-0.0136,-0.0136,0,-0.0058,-0.0061,-0.0078,-0.0095,-0.0105,-0.012,-0.0152,-0.0173,-0.0176,-0.0202,-0.0205,-0.0208,-0.0206,-0.019,-0.0183,-0.0169,-0.016,-0.0155,-0.0145,-0.0136,-0.0122,-0.012,-0.0142,-0.0142,-0.0142,-0.0142,-0.0142,0,-0.0061,-0.0065,-0.0089,-0.0109,-0.012,-0.0145,-0.0171,-0.0183,-0.0204,-0.0222,-0.0239,-0.0238,-0.0236,-0.0226,-0.0205,-0.0173,-0.0167,-0.016,-0.0144,-0.0135,-0.0126,-0.0124,-0.0122,-0.0143,-0.0143,-0.0143,-0.0143,0,-0.0072,-0.0078,-0.0095,-0.013,-0.0159,-0.0194,-0.0224,-0.0238,-0.0255,-0.0255,-0.027,-0.0259,-0.0257,-0.0234,-0.0213,-0.0189,-0.0165,-0.0162,-0.016,-0.0145,-0.0136,-0.0127,-0.0124,-0.0144,-0.0143,-0.0143,-0.0143,0,-0.0089,-0.0106,-0.0129,-0.016,-0.0198,-0.0237,-0.0249,-0.0275,-0.0289,-0.0293,-0.0301,-0.0286,-0.0275,-0.0243,-0.0227,-0.0203,-0.0187,-0.0176,-0.0174,-0.0173,-0.0185,-0.0178,-0.0202,0,0,0,0,0,-0.0108,-0.0131,-0.0162,-0.0201,-0.0237,-0.0255,-0.0289,-0.0296,-0.03,-0.0313,-0.0304,-0.0297,-0.0267,-0.0256,-0.0231,-0.0225,-0.0184,-0.0196,-0.0171,-0.0147,-0.0146,-0.0156,0,0,0,0,0,0,-0.0128,-0.0157,-0.0167,-0.0225,-0.0254,-0.0298,-0.0317,-0.0321,-0.0322,-0.0317,-0.03,-0.0286,-0.0255,-0.0275,-0.0227,-0.022,-0.0202,-0.0178,-0.0178,-0.0148,-0.0147,-0.0146,-0.0156,0,0,0,0,0]}]]